Starlink 32750

operational
NORAD ID: 62572 Int'l Des: 2025-006 Owner: SPXS Country: US Constellation: starlink
LEOCIRCULAR

Starlink 32750について

説明を読み込み中...

リアルタイム位置

3D地球を読み込み中...

次回通過

高度履歴

Altitude vs Time

uPlot chart will show altitude changes over time

軌道要素

1 62572U 25006U 25302.30529825 .00044044 00000-0 15983-2 0 9995
2 62572 43.0039 314.1719 0002138 272.2380 87.8227 15.27624468 44778
Epoch: Oct 29, 2025 • Age: 13 hours

現在のステータス

高度 483.6 km
速度 7.63 km/s
衛星直下点 24.82°N, 115.6°E
打ち上げ日 Jan 10, 2025
運用期間 0.7 years
タイプ internet

技術仕様

分類 Payload
質量 730.00 kg
乾燥質量 700.00 kg
総質量 730.00 kg
長さ 0.30 m
直径 4.10 m
スパン 29.00 m
形状 Box + pan
製造者 SPXS
バスタイプ Starlink V2M
フェーズステータス In Orbit
所有者/国 SPXS/US

大規模コンステレーション

Loading constellations...